CZ-3C DEB, 40202

Orbit data source: Space-Track

CZ-3C DEB, 40202 is space debris in HEO originally from a launch on Fri, 24 Feb 2012 UTC launched from the Xichang Space Center, China (XSC). Debris objects in space refer to the collection of defunct objects orbiting the Earth. Examples of debris include non-operational satellites, rocket bodies, and fragments generated from explosions, collisions, or faulty payload assembly.

Not visible in the next 10 days
Identifier
40202, 2012-008M
Orbit
HEO
Country
Flag of CNCN / PRC
Related business
Manufacturer
CALT
Mission
Spacecraft
Bus & Motor
Unknown
Mass
Unknown
Launch date (UTC)
2012-02-24 (14 years ago)
Launch vehicle
Unknown
Launch site
Xichang Space Center, China (XSC)
Object type
Payload
Rocket body
Debris
Shape & HBR
Unknown shape, 0.1 m
Radar Cross Section
Medium (>0.1 m² and <1 m²)

Expand to show TLE details & history
Last TLE update: 2 days ago

TLE from 2 days ago
0 CZ-3C DEB
1 40202U 12008M   26033.70590818  .00000438  00000-0  34346-2 0  9998
2 40202  19.9163 246.3982 7113838 101.5835 339.2278  2.36322785107760
Epoch: 2026-02-02T16:56Z
TLE epoch observation values (Epoch: 2026-02-02T16:56:30.466Z)
Latitude
-0.00006°
Longitude
-140.52909°
Altitude
7,288.83 km
Speed
6.449 km/s
True Right ascension
16h 25m 58s
True Declination
0° 00' 00"
Sunlit
Object was in daylight at epoch
Visualization orbit readout
Latitude
Unknown
Longitude
Unknown
Altitude
Unknown
Speed
Unknown
Apparent Right ascension
Unknown
Apparent Declination
Unknown
Sunlit
N/A
Visualization observer readout
Local Sidereal Time
08:59:38
Azimuth
Unknown
Elevation
Unknown
Doppler factor
Unknown
Orbital elements
Apogee altitude
34,374.847 km
Perigee altitude
494.647 km
Semi-major axis
23,812.884 km
Eccentricity
0.71138
Inclination
19.9163°
RAAN
246.3982°
Arg. of periapsis
101.5835°
True anomaly
258.26462°
Mean anomaly
339.2278°
Eccentric anomaly
306.43618°
Mean motion
0.59064 °/min
Orbital period
609.51 mins
BSTAR
0.0034346
Loading maneuver chart data...
Computing Atmospheric mass density...
Loading historical data...
Loading historical data...
Loading historical data...
Loading historical data...
Loading historical data...
Loading historical data...
Loading historical data...

Documentation

Showing up to 5 results
|